Time,TemperatureF,DewpointF,PressureIn,WindDirection,WindDirectionDegrees,WindSpeedMPH,WindSpeedGustMPH,Humidity,HourlyPrecipIn,Conditions,Clouds,dailyrainin,SolarRadiationWatts/m^2,SoftwareType,DateUTC
2013-05-05 00:09:00,30.7,21.4,30.18,SSW,207,1.0,1.0,68,0.00,,,0.00,0,Wunderground v.1.15,2013-05-05 06:09:00,
2013-05-05 00:18:00,31.0,20.0,30.18,SW,221,5.0,6.0,65,0.00,,,0.00,0,weatherlink.com 1.10,2013-05-05 06:18:00,
2013-05-05 00:23:00,30.7,20.7,30.18,SW,222,3.0,5.0,66,0.00,,,0.00,0,Wunderground v.1.15,2013-05-05 06:23:00,
2013-05-05 00:29:00,30.3,20.6,30.18,SW,222,4.0,4.0,67,0.00,,,0.00,0,Wunderground v.1.15,2013-05-05 06:29:00,
2013-05-05 00:39:00,29.4,20.5,30.18,SW,218,2.0,3.0,69,0.00,,,0.00,0,Wunderground v.1.15,2013-05-05 06:39:00,
2013-05-05 00:48:00,30.4,20.0,30.18,SSW,207,3.0,5.0,66,0.00,,,0.00,0,weatherlink.com 1.10,2013-05-05 06:48:00,
2013-05-05 00:53:00,31.2,20.1,30.17,SSW,196,3.0,3.0,63,0.00,,,0.00,0,Wunderground v.1.15,2013-05-05 06:53:00,
2013-05-05 00:59:00,31.6,20.1,30.17,SSW,196,3.0,4.0,62,0.00,,,0.00,0,Wunderground v.1.15,2013-05-05 06:59:00,
2013-05-05 01:09:00,30.6,20.2,30.17,SSW,196,3.0,3.0,65,0.00,,,0.00,0,Wunderground v.1.15,2013-05-05 07:09:00,
2013-05-05 01:18:00,29.4,20.0,30.17,SSW,196,0.0,0.0,68,0.00,,,0.00,0,weatherlink.com 1.10,2013-05-05 07:18:00,
2013-05-05 01:24:00,28.8,20.2,30.17,SSW,196,0.0,0.0,70,0.00,,,0.00,0,Wunderground v.1.15,2013-05-05 07:24:00,
2013-05-05 01:29:00,27.9,20.0,30.17,SSW,196,0.0,0.0,72,0.00,,,0.00,0,Wunderground v.1.15,2013-05-05 07:29:00,
2013-05-05 01:34:00,28.1,19.0,30.16,SSW,194,2.0,4.0,70,0.00,,,0.00,0,weatherlink.com 1.10,2013-05-05 07:34:00,
2013-05-05 01:43:00,28.8,18.9,30.17,SSW,194,1.0,1.0,66,0.00,,,0.00,0,Wunderground v.1.15,2013-05-05 07:43:00,
2013-05-05 01:49:00,29.1,18.4,30.16,SSW,192,0.0,0.0,64,0.00,,,0.00,0,Wunderground v.1.15,2013-05-05 07:49:00,
2013-05-05 01:58:00,30.7,17.3,30.16,South,169,2.0,5.0,57,0.00,,,0.00,0,Wunderground v.1.15,2013-05-05 07:58:00,
2013-05-05 02:04:00,31.5,16.7,30.16,South,186,4.0,6.0,54,0.00,,,0.00,0,Wunderground v.1.15,2013-05-05 08:04:00,
2013-05-05 02:14:00,30.3,18.1,30.16,SSW,196,5.0,6.0,60,0.00,,,0.00,0,Wunderground v.1.15,2013-05-05 08:14:00,
2013-05-05 02:23:00,30.1,17.9,30.16,South,191,6.0,6.0,60,0.00,,,0.00,0,Wunderground v.1.15,2013-05-05 08:23:00,
2013-05-05 02:29:00,30.1,17.5,30.16,South,190,5.0,5.0,59,0.00,,,0.00,0,Wunderground v.1.15,2013-05-05 08:29:00,
2013-05-05 02:38:00,30.1,17.9,30.16,South,182,2.0,2.0,60,0.00,,,0.00,0,Wunderground v.1.15,2013-05-05 08:38:00,
2013-05-05 02:44:00,30.0,17.8,30.15,South,181,1.0,3.0,60,0.00,,,0.00,0,Wunderground v.1.15,2013-05-05 08:44:00,
2013-05-05 02:54:00,30.7,17.3,30.15,South,184,5.0,5.0,57,0.00,,,0.00,0,Wunderground v.1.15,2013-05-05 08:54:00,
2013-05-05 03:03:00,30.3,17.0,30.15,South,184,2.0,6.0,58,0.00,,,0.00,0,weatherlink.com 1.10,2013-05-05 09:03:00,
2013-05-05 03:08:00,30.0,17.4,30.15,South,184,3.0,3.0,59,0.00,,,0.00,0,Wunderground v.1.15,2013-05-05 09:08:00,
2013-05-05 03:19:00,29.8,17.2,30.15,South,184,1.0,1.0,59,0.00,,,0.00,0,Wunderground v.1.15,2013-05-05 09:19:00,
2013-05-05 03:29:00,29.1,17.3,30.15,South,184,0.0,0.0,61,0.00,,,0.00,0,Wunderground v.1.15,2013-05-05 09:29:00,
2013-05-05 03:34:00,29.0,17.6,30.15,South,184,0.0,0.0,62,0.00,,,0.00,0,Wunderground v.1.15,2013-05-05 09:34:00,
2013-05-05 03:44:00,29.0,17.6,30.15,South,184,0.0,3.0,62,0.00,,,0.00,0,Wunderground v.1.15,2013-05-05 09:44:00,
2013-05-05 03:49:00,28.7,17.0,30.15,South,184,0.0,4.0,63,0.00,,,0.00,0,weatherlink.com 1.10,2013-05-05 09:49:00,
2013-05-05 03:58:00,29.3,17.1,30.15,South,184,1.0,1.0,60,0.00,,,0.00,0,Wunderground v.1.15,2013-05-05 09:58:00,
2013-05-05 04:04:00,29.7,16.7,30.15,South,174,0.0,1.0,58,0.00,,,0.00,0,Wunderground v.1.15,2013-05-05 10:04:00,
2013-05-05 04:13:00,30.3,15.2,30.14,SSE,165,2.0,5.0,53,0.00,,,0.00,0,Wunderground v.1.15,2013-05-05 10:13:00,
2013-05-05 04:19:00,30.1,15.4,30.14,SSE,168,4.0,7.0,54,0.00,,,0.00,0,Wunderground v.1.15,2013-05-05 10:19:00,
2013-05-05 04:28:00,29.5,15.7,30.14,South,173,5.0,5.0,56,0.00,,,0.00,0,Wunderground v.1.15,2013-05-05 10:28:00,
2013-05-05 04:34:00,29.4,15.6,30.14,SSE,167,4.0,5.0,56,0.00,,,0.00,0,Wunderground v.1.15,2013-05-05 10:34:00,
2013-05-05 04:39:00,29.1,15.3,30.14,SSE,167,3.0,4.0,56,0.00,,,0.00,0,Wunderground v.1.15,2013-05-05 10:39:00,
2013-05-05 04:49:00,28.7,15.4,30.14,SSE,167,3.0,3.0,57,0.00,,,0.00,0,Wunderground v.1.15,2013-05-05 10:49:00,
2013-05-05 04:58:00,28.1,15.6,30.13,South,169,2.0,6.0,59,0.00,,,0.00,0,Wunderground v.1.15,2013-05-05 10:58:00,
2013-05-05 05:04:00,28.5,14.8,30.13,South,181,4.0,6.0,56,0.00,,,0.00,0,Wunderground v.1.15,2013-05-05 11:04:00,
2013-05-05 05:14:00,29.0,14.4,30.13,South,179,3.0,5.0,54,0.00,,,0.00,0,Wunderground v.1.15,2013-05-05 11:14:00,
2013-05-05 05:20:00,28.8,15.0,30.13,South,179,3.0,6.0,56,0.00,,,0.00,0,weatherlink.com 1.10,2013-05-05 11:20:00,
2013-05-05 05:28:00,29.1,14.9,30.13,SSW,192,3.0,4.0,55,0.00,,,0.00,0,Wunderground v.1.15,2013-05-05 11:28:00,
2013-05-05 05:33:00,29.1,14.5,30.13,South,191,2.0,4.0,54,0.00,,,0.00,0,Wunderground v.1.15,2013-05-05 11:33:00,
2013-05-05 05:43:00,29.3,15.1,30.13,South,175,2.0,4.0,55,0.00,,,0.00,0,Wunderground v.1.15,2013-05-05 11:43:00,
2013-05-05 05:50:00,29.0,15.0,30.12,South,176,3.0,6.0,56,0.00,,,0.00,0,weatherlink.com 1.10,2013-05-05 11:50:00,
2013-05-05 05:59:00,29.0,15.2,30.13,South,176,2.0,4.0,56,0.00,,,0.00,12,Wunderground v.1.15,2013-05-05 11:59:00,
2013-05-05 06:05:00,29.0,15.0,30.13,South,176,2.0,5.0,57,0.00,,,0.00,19,weatherlink.com 1.10,2013-05-05 12:05:00,
2013-05-05 06:14:00,30.0,14.5,30.13,South,180,3.0,5.0,52,0.00,,,0.00,23,Wunderground v.1.15,2013-05-05 12:14:00,
2013-05-05 06:19:00,30.6,15.0,30.13,South,184,6.0,6.0,52,0.00,,,0.00,23,Wunderground v.1.15,2013-05-05 12:19:00,
2013-05-05 06:28:00,31.2,15.6,30.13,South,180,5.0,5.0,52,0.00,,,0.00,25,Wunderground v.1.15,2013-05-05 12:28:00,
2013-05-05 06:34:00,31.3,15.2,30.14,South,176,4.0,7.0,51,0.00,,,0.00,28,Wunderground v.1.15,2013-05-05 12:34:00,
2013-05-05 06:39:00,31.5,15.0,30.14,South,176,4.0,5.0,50,0.00,,,0.00,33,Wunderground v.1.15,2013-05-05 12:39:00,
2013-05-05 06:48:00,31.8,14.3,30.14,South,183,5.0,6.0,48,0.00,,,0.00,54,Wunderground v.1.15,2013-05-05 12:48:00,
2013-05-05 06:54:00,32.1,14.6,30.14,South,190,6.0,6.0,48,0.00,,,0.00,65,Wunderground v.1.15,2013-05-05 12:54:00,
2013-05-05 07:04:00,32.7,14.2,30.14,South,184,6.0,6.0,46,0.00,,,0.00,74,Wunderground v.1.15,2013-05-05 13:04:00,
2013-05-05 07:13:00,33.1,14.0,30.14,South,188,5.0,6.0,45,0.00,,,0.00,84,Wunderground v.1.15,2013-05-05 13:13:00,
2013-05-05 07:19:00,33.4,14.3,30.13,SSW,200,6.0,9.0,45,0.00,,,0.00,90,Wunderground v.1.15,2013-05-05 13:19:00,
2013-05-05 07:29:00,33.5,13.9,30.13,SSW,209,5.0,5.0,44,0.00,,,0.00,113,Wunderground v.1.15,2013-05-05 13:29:00,
2013-05-05 07:37:00,33.7,13.0,30.14,South,184,4.0,10.0,42,0.00,,,0.00,132,weatherlink.com 1.10,2013-05-05 13:37:00,
2013-05-05 07:44:00,33.8,12.6,30.14,SSW,195,5.0,8.0,41,0.00,,,0.00,158,Wunderground v.1.15,2013-05-05 13:44:00,
2013-05-05 07:51:00,34.3,12.0,30.14,South,179,6.0,12.0,40,0.00,,,0.00,178,weatherlink.com 1.10,2013-05-05 13:51:00,
2013-05-05 07:59:00,34.7,12.2,30.14,SSW,195,7.0,7.0,39,0.00,,,0.00,199,Wunderground v.1.15,2013-05-05 13:59:00,
2013-05-05 08:07:00,35.2,12.0,30.13,SSW,195,10.0,12.0,38,0.00,,,0.00,209,weatherlink.com 1.10,2013-05-05 14:07:00,
2013-05-05 08:14:00,35.8,12.6,30.13,SSW,194,8.0,11.0,38,0.00,,,0.00,262,Wunderground v.1.15,2013-05-05 14:14:00,
2013-05-05 08:19:00,35.9,12.1,30.13,SSW,200,8.0,8.0,37,0.00,,,0.00,285,Wunderground v.1.15,2013-05-05 14:19:00,
2013-05-05 08:29:00,36.8,11.7,30.13,South,185,9.0,9.0,35,0.00,,,0.00,380,Wunderground v.1.15,2013-05-05 14:29:00,
2013-05-05 08:36:00,36.9,13.0,30.13,SSW,193,8.0,16.0,37,0.00,,,0.00,274,weatherlink.com 1.10,2013-05-05 14:36:00,
2013-05-05 08:44:00,37.2,12.0,30.13,SSW,196,10.0,10.0,35,0.00,,,0.00,246,Wunderground v.1.15,2013-05-05 14:44:00,
2013-05-05 08:52:00,37.5,13.0,30.13,SSW,194,14.0,15.0,36,0.00,,,0.00,330,weatherlink.com 1.10,2013-05-05 14:52:00,
2013-05-05 08:58:00,37.8,11.9,30.13,SSW,194,11.0,11.0,34,0.00,,,0.00,367,Wunderground v.1.15,2013-05-05 14:58:00,
2013-05-05 09:04:00,38.2,10.9,30.13,South,176,12.0,15.0,32,0.00,,,0.00,392,Wunderground v.1.15,2013-05-05 15:04:00,
2013-05-05 09:14:00,39.5,12.0,30.13,SSE,157,11.0,12.0,32,0.00,,,0.00,489,Wunderground v.1.15,2013-05-05 15:14:00,
2013-05-05 09:22:00,40.3,12.0,30.13,SSW,201,13.0,20.0,31,0.00,,,0.00,496,weatherlink.com 1.10,2013-05-05 15:22:00,
2013-05-05 09:29:00,39.8,10.8,30.13,SSW,196,12.0,12.0,30,0.00,,,0.00,455,Wunderground v.1.15,2013-05-05 15:29:00,
2013-05-05 09:34:00,39.2,10.3,30.13,SW,225,12.0,12.0,30,0.00,,,0.00,452,Wunderground v.1.15,2013-05-05 15:34:00,
2013-05-05 09:44:00,39.2,11.0,30.13,South,188,12.0,12.0,31,0.00,,,0.00,425,Wunderground v.1.15,2013-05-05 15:44:00,
2013-05-05 09:52:00,40.2,12.0,30.13,South,172,14.0,17.0,32,0.00,,,0.00,378,weatherlink.com 1.10,2013-05-05 15:52:00,
2013-05-05 09:58:00,39.9,11.7,30.13,SSW,198,11.0,15.0,31,0.00,,,0.00,339,Wunderground v.1.15,2013-05-05 15:58:00,
2013-05-05 10:04:00,40.1,13.3,30.13,SSW,206,11.0,15.0,33,0.00,,,0.00,302,Wunderground v.1.15,2013-05-05 16:04:00,
2013-05-05 10:13:00,39.3,11.9,30.14,SW,215,12.0,16.0,32,0.00,,,0.00,290,Wunderground v.1.15,2013-05-05 16:13:00,
2013-05-05 10:19:00,39.6,12.1,30.14,South,189,11.0,11.0,32,0.00,,,0.00,304,Wunderground v.1.15,2013-05-05 16:19:00,
2013-05-05 10:29:00,40.2,11.9,30.14,South,178,12.0,12.0,31,0.00,,,0.00,434,Wunderground v.1.15,2013-05-05 16:29:00,
2013-05-05 10:34:00,41.3,12.9,30.14,SSW,206,11.0,13.0,31,0.00,,,0.00,454,Wunderground v.1.15,2013-05-05 16:34:00,
2013-05-05 10:43:00,42.6,14.0,30.14,SSW,199,11.0,15.0,31,0.00,,,0.00,519,Wunderground v.1.15,2013-05-05 16:43:00,
2013-05-05 10:49:00,42.6,14.0,30.14,South,180,11.0,13.0,31,0.00,,,0.00,591,Wunderground v.1.15,2013-05-05 16:49:00,
2013-05-05 10:59:00,43.2,11.4,30.13,SSE,161,13.0,20.0,27,0.00,,,0.00,571,Wunderground v.1.15,2013-05-05 16:59:00,
2013-05-05 11:08:00,43.9,13.0,30.13,SSW,200,18.0,21.0,29,0.00,,,0.00,596,weatherlink.com 1.10,2013-05-05 17:08:00,
2013-05-05 11:18:00,44.3,14.0,30.13,South,174,14.0,14.0,29,0.00,,,0.00,621,Wunderground v.1.15,2013-05-05 17:18:00,
2013-05-05 11:24:00,45.1,15.5,30.13,SSE,161,13.0,14.0,30,0.00,,,0.00,628,Wunderground v.1.15,2013-05-05 17:24:00,
2013-05-05 11:34:00,43.9,12.8,30.13,South,176,15.0,17.0,28,0.00,,,0.00,512,Wunderground v.1.15,2013-05-05 17:34:00,
2013-05-05 11:43:00,45.7,14.4,30.13,South,184,15.0,15.0,28,0.00,,,0.00,788,Wunderground v.1.15,2013-05-05 17:43:00,
2013-05-05 11:49:00,45.4,13.3,30.13,SSE,163,14.0,14.0,27,0.00,,,0.00,664,Wunderground v.1.15,2013-05-05 17:49:00,
2013-05-05 11:59:00,45.7,14.4,30.12,South,171,13.0,14.0,28,0.00,,,0.00,429,Wunderground v.1.15,2013-05-05 17:59:00,
2013-05-05 12:07:00,45.5,14.0,30.12,SE,139,8.0,21.0,28,0.00,,,0.00,434,weatherlink.com 1.10,2013-05-05 18:07:00,
2013-05-05 12:14:00,45.7,13.6,30.12,South,182,16.0,18.0,27,0.00,,,0.00,826,Wunderground v.1.15,2013-05-05 18:14:00,
2013-05-05 12:23:00,46.4,15.0,30.11,SSE,165,19.0,24.0,28,0.00,,,0.00,847,weatherlink.com 1.10,2013-05-05 18:23:00,
2013-05-05 12:28:00,46.2,14.8,30.10,SSE,167,17.0,17.0,28,0.00,,,0.00,761,Wunderground v.1.15,2013-05-05 18:28:00,
2013-05-05 12:39:00,46.8,14.5,30.10,South,175,15.0,17.0,27,0.00,,,0.00,761,Wunderground v.1.15,2013-05-05 18:39:00,
2013-05-05 12:48:00,46.4,15.0,30.11,South,169,16.0,16.0,28,0.00,,,0.00,675,Wunderground v.1.15,2013-05-05 18:48:00,
2013-05-05 12:54:00,46.2,14.8,30.11,South,170,16.0,16.0,28,0.00,,,0.00,534,Wunderground v.1.15,2013-05-05 18:54:00,
2013-05-05 13:04:00,46.4,14.2,30.11,SSE,167,13.0,21.0,27,0.00,,,0.00,775,Wunderground v.1.15,2013-05-05 19:04:00,
2013-05-05 13:09:00,46.5,14.3,30.10,SE,126,14.0,14.0,27,0.00,,,0.00,605,Wunderground v.1.15,2013-05-05 19:09:00,
2013-05-05 13:19:00,46.7,13.6,30.10,South,183,14.0,14.0,26,0.00,,,0.00,520,Wunderground v.1.15,2013-05-05 19:19:00,
2013-05-05 13:24:00,46.5,14.3,30.09,SSE,155,13.0,14.0,27,0.00,,,0.00,621,Wunderground v.1.15,2013-05-05 19:24:00,
2013-05-05 13:34:00,46.7,14.4,30.09,SSE,167,14.0,17.0,27,0.00,,,0.00,534,Wunderground v.1.15,2013-05-05 19:34:00,
2013-05-05 13:39:00,46.4,16.0,30.09,South,184,14.0,24.0,29,0.00,,,0.00,482,weatherlink.com 1.10,2013-05-05 19:39:00,
2013-05-05 13:48:00,46.1,13.9,30.08,SSE,165,13.0,13.0,27,0.00,,,0.00,559,Wunderground v.1.15,2013-05-05 19:48:00,
2013-05-05 13:54:00,46.0,13.8,30.08,SSE,163,14.0,18.0,27,0.00,,,0.00,622,Wunderground v.1.15,2013-05-05 19:54:00,
2013-05-05 14:04:00,45.5,13.4,30.08,South,181,18.0,18.0,27,0.00,,,0.00,566,Wunderground v.1.15,2013-05-05 20:04:00,
2013-05-05 14:15:00,46.2,13.1,30.06,South,171,19.0,21.0,26,0.00,,,0.00,659,Wunderground v.1.15,2013-05-05 20:15:00,
2013-05-05 14:23:00,46.2,14.0,30.05,South,169,25.0,31.0,27,0.00,,,0.00,684,weatherlink.com 1.10,2013-05-05 20:23:00,
2013-05-05 14:30:00,47.4,15.0,30.05,South,183,20.0,20.0,27,0.00,,,0.00,865,Wunderground v.1.15,2013-05-05 20:30:00,
2013-05-05 14:39:00,47.4,15.0,30.05,South,171,21.0,21.0,27,0.00,,,0.00,445,Wunderground v.1.15,2013-05-05 20:39:00,
2013-05-05 14:49:00,47.4,14.2,30.05,South,171,18.0,20.0,26,0.00,,,0.00,728,Wunderground v.1.15,2013-05-05 20:49:00,
2013-05-05 14:55:00,48.2,15.0,30.05,SE,142,13.0,25.0,26,0.00,,,0.00,584,weatherlink.com 1.10,2013-05-05 20:55:00,
2013-05-05 15:04:00,48.2,15.7,30.04,South,173,17.0,21.0,27,0.00,,,0.00,661,Wunderground v.1.15,2013-05-05 21:04:00,
2013-05-05 15:09:00,49.5,16.0,30.05,SSE,156,16.0,17.0,26,0.00,,,0.00,809,Wunderground v.1.15,2013-05-05 21:09:00,
2013-05-05 15:20:00,49.1,15.6,30.04,South,190,16.0,17.0,26,0.00,,,0.00,642,Wunderground v.1.15,2013-05-05 21:20:00,
2013-05-05 15:29:00,48.3,15.8,30.05,SE,143,14.0,14.0,27,0.00,,,0.00,497,Wunderground v.1.15,2013-05-05 21:29:00,
2013-05-05 15:39:00,47.9,16.0,30.05,South,183,10.0,21.0,28,0.00,,,0.00,575,weatherlink.com 1.10,2013-05-05 21:39:00,
2013-05-05 15:45:00,47.7,14.4,30.06,South,184,10.0,12.0,26,0.00,,,0.00,714,Wunderground v.1.15,2013-05-05 21:45:00,
2013-05-05 15:54:00,47.9,15.0,30.06,SE,135,13.0,21.0,27,0.00,,,0.00,671,weatherlink.com 1.10,2013-05-05 21:54:00,
2013-05-05 15:59:00,47.9,14.6,30.06,SSE,162,11.0,11.0,26,0.00,,,0.00,708,Wunderground v.1.15,2013-05-05 21:59:00,
2013-05-05 16:05:00,48.2,14.9,30.06,South,171,11.0,11.0,26,0.00,,,0.00,652,Wunderground v.1.15,2013-05-05 22:05:00,
2013-05-05 16:15:00,48.0,15.6,30.06,SE,145,10.0,11.0,27,0.00,,,0.00,603,Wunderground v.1.15,2013-05-05 22:15:00,
2013-05-05 16:24:00,48.3,15.0,30.07,SSW,194,13.0,14.0,26,0.00,,,0.00,589,weatherlink.com 1.10,2013-05-05 22:24:00,
2013-05-05 16:30:00,48.2,15.7,30.07,SSE,165,9.0,9.0,27,0.00,,,0.00,499,Wunderground v.1.15,2013-05-05 22:30:00,
2013-05-05 16:40:00,47.1,14.8,30.07,SSE,165,11.0,11.0,27,0.00,,,0.00,394,Wunderground v.1.15,2013-05-05 22:40:00,
2013-05-05 16:49:00,46.7,14.4,30.07,SSW,197,7.0,7.0,27,0.00,,,0.00,341,Wunderground v.1.15,2013-05-05 22:49:00,
2013-05-05 16:55:00,46.8,15.0,30.07,South,190,10.0,13.0,28,0.00,,,0.00,366,weatherlink.com 1.10,2013-05-05 22:55:00,
2013-05-05 17:04:00,46.0,14.7,30.07,South,181,9.0,9.0,28,0.00,,,0.00,251,Wunderground v.1.15,2013-05-05 23:04:00,
2013-05-05 17:11:00,45.5,15.0,30.07,South,177,7.0,15.0,29,0.00,,,0.00,223,weatherlink.com 1.10,2013-05-05 23:11:00,
2013-05-05 17:19:00,45.2,14.8,30.08,SSW,198,7.0,7.0,29,0.00,,,0.00,220,Wunderground v.1.15,2013-05-05 23:19:00,
2013-05-05 17:25:00,45.2,14.0,30.08,SSE,166,7.0,7.0,28,0.00,,,0.00,213,Wunderground v.1.15,2013-05-05 23:25:00,
2013-05-05 17:35:00,45.2,15.6,30.07,SSE,161,8.0,9.0,30,0.00,,,0.00,239,Wunderground v.1.15,2013-05-05 23:35:00,
2013-05-05 17:40:00,45.1,13.9,30.08,South,178,8.0,9.0,28,0.00,,,0.00,206,Wunderground v.1.15,2013-05-05 23:40:00,
2013-05-05 17:50:00,45.1,14.7,30.08,South,169,8.0,11.0,29,0.00,,,0.00,199,Wunderground v.1.15,2013-05-05 23:50:00,
2013-05-05 17:55:00,44.6,16.0,30.08,South,175,3.0,13.0,31,0.00,,,0.00,178,weatherlink.com 1.10,2013-05-05 23:55:00,
2013-05-05 18:04:00,44.1,15.3,30.08,SSE,149,8.0,9.0,31,0.00,,,0.00,134,Wunderground v.1.15,2013-05-06 00:04:00,
2013-05-05 18:10:00,43.8,15.1,30.08,SSE,167,8.0,11.0,31,0.00,,,0.00,121,Wunderground v.1.15,2013-05-06 00:10:00,
2013-05-05 18:20:00,43.6,16.3,30.08,South,186,7.0,9.0,33,0.00,,,0.00,104,Wunderground v.1.15,2013-05-06 00:20:00,
2013-05-05 18:26:00,43.6,16.0,30.08,South,172,7.0,11.0,33,0.00,,,0.00,95,weatherlink.com 1.10,2013-05-06 00:26:00,
2013-05-05 18:34:00,43.6,15.6,30.08,SSE,153,5.0,7.0,32,0.00,,,0.00,90,Wunderground v.1.15,2013-05-06 00:34:00,
2013-05-05 18:40:00,43.5,15.5,30.08,SSE,163,4.0,4.0,32,0.00,,,0.00,86,Wunderground v.1.15,2013-05-06 00:40:00,
2013-05-05 18:50:00,43.6,16.3,30.09,South,188,4.0,8.0,33,0.00,,,0.00,107,Wunderground v.1.15,2013-05-06 00:50:00,
2013-05-05 18:56:00,43.6,15.0,30.08,SSE,161,1.0,10.0,32,0.00,,,0.00,100,weatherlink.com 1.10,2013-05-06 00:56:00,
2013-05-05 19:04:00,43.5,17.6,30.09,South,173,4.0,9.0,35,0.00,,,0.00,79,Wunderground v.1.15,2013-05-06 01:04:00,
2013-05-05 19:10:00,43.2,17.4,30.09,South,180,5.0,7.0,35,0.00,,,0.00,60,Wunderground v.1.15,2013-05-06 01:10:00,
2013-05-05 19:20:00,42.5,17.4,30.09,South,176,4.0,4.0,36,0.00,,,0.00,42,Wunderground v.1.15,2013-05-06 01:20:00,
2013-05-05 19:25:00,42.2,18.4,30.09,South,184,3.0,5.0,38,0.00,,,0.00,35,Wunderground v.1.15,2013-05-06 01:25:00,
2013-05-05 19:35:00,41.6,18.4,30.10,South,190,4.0,6.0,39,0.00,,,0.00,21,Wunderground v.1.15,2013-05-06 01:35:00,
2013-05-05 19:40:00,41.3,18.2,30.10,SSW,194,4.0,5.0,39,0.00,,,0.00,16,Wunderground v.1.15,2013-05-06 01:40:00,
2013-05-05 19:50:00,40.6,18.7,30.10,SSW,192,1.0,1.0,41,0.00,,,0.00,7,Wunderground v.1.15,2013-05-06 01:50:00,
2013-05-05 19:56:00,40.2,19.0,30.10,SSW,192,0.0,0.0,42,0.00,,,0.00,0,weatherlink.com 1.10,2013-05-06 01:56:00,
2013-05-05 20:04:00,39.5,19.9,30.11,SSW,192,0.0,0.0,45,0.00,,,0.00,0,Wunderground v.1.15,2013-05-06 02:04:00,
2013-05-05 20:10:00,39.1,20.0,30.11,SSW,192,0.0,0.0,46,0.00,,,0.00,0,Wunderground v.1.15,2013-05-06 02:10:00,
2013-05-05 20:15:00,38.6,20.1,30.11,SSW,192,0.0,0.0,47,0.00,,,0.00,0,Wunderground v.1.15,2013-05-06 02:15:00,
2013-05-05 20:24:00,38.0,20.5,30.12,SSW,192,0.0,0.0,49,0.00,,,0.00,0,Wunderground v.1.15,2013-05-06 02:24:00,
2013-05-05 20:30:00,37.8,21.3,30.12,SSW,192,0.0,0.0,51,0.00,,,0.00,0,Wunderground v.1.15,2013-05-06 02:30:00,
2013-05-05 20:35:00,37.6,21.1,30.12,SSW,192,0.0,0.0,51,0.00,,,0.00,0,Wunderground v.1.15,2013-05-06 02:35:00,
2013-05-05 20:42:00,37.8,20.0,30.12,SSW,192,0.0,0.0,49,0.00,,,0.00,0,weatherlink.com 1.10,2013-05-06 02:42:00,
2013-05-05 20:49:00,38.5,20.5,30.12,SSW,192,0.0,0.0,48,0.00,,,0.00,0,Wunderground v.1.15,2013-05-06 02:49:00,
2013-05-05 20:55:00,38.8,19.8,30.12,SSW,192,0.0,0.0,46,0.00,,,0.00,0,Wunderground v.1.15,2013-05-06 02:55:00,
2013-05-05 21:04:00,38.3,20.3,30.13,SSW,192,0.0,0.0,48,0.00,,,0.00,0,Wunderground v.1.15,2013-05-06 03:04:00,
2013-05-05 21:11:00,37.6,20.0,30.12,SSW,192,0.0,0.0,49,0.00,,,0.00,0,weatherlink.com 1.10,2013-05-06 03:11:00,
2013-05-05 21:19:00,36.5,20.1,30.13,SSW,192,0.0,0.0,51,0.00,,,0.00,0,Wunderground v.1.15,2013-05-06 03:19:00,
2013-05-05 21:26:00,35.8,19.0,30.13,SSW,192,0.0,0.0,50,0.00,,,0.00,0,weatherlink.com 1.10,2013-05-06 03:26:00,
2013-05-05 21:34:00,35.2,19.8,30.14,SSW,192,0.0,0.0,53,0.00,,,0.00,0,Wunderground v.1.15,2013-05-06 03:34:00,
2013-05-05 21:40:00,34.9,19.9,30.13,SSW,192,0.0,0.0,54,0.00,,,0.00,0,Wunderground v.1.15,2013-05-06 03:40:00,
2013-05-05 21:45:00,34.7,20.2,30.13,SSW,192,0.0,0.0,55,0.00,,,0.00,0,Wunderground v.1.15,2013-05-06 03:45:00,
2013-05-05 21:55:00,34.9,20.4,30.13,SSW,192,0.0,0.0,55,0.00,,,0.00,0,Wunderground v.1.15,2013-05-06 03:55:00,
2013-05-05 22:00:00,35.0,20.4,30.13,SSW,192,0.0,0.0,55,0.00,,,0.00,0,Wunderground v.1.15,2013-05-06 04:00:00,
2013-05-05 22:05:00,35.2,20.2,30.13,SSW,192,0.0,0.0,54,0.00,,,0.00,0,Wunderground v.1.15,2013-05-06 04:05:00,
2013-05-05 22:09:00,35.5,20.5,30.13,SSW,192,0.0,0.0,54,0.00,,,0.00,0,Wunderground v.1.15,2013-05-06 04:09:00,
2013-05-05 22:12:00,35.5,21.0,30.13,SSW,192,0.0,0.0,55,0.00,,,0.00,0,weatherlink.com 1.10,2013-05-06 04:12:00,
2013-05-05 22:19:00,35.8,20.3,30.12,SSW,192,1.0,2.0,53,0.00,,,0.00,0,Wunderground v.1.15,2013-05-06 04:19:00,
2013-05-05 22:25:00,37.0,19.6,30.12,SSE,165,2.0,7.0,49,0.00,,,0.00,0,Wunderground v.1.15,2013-05-06 04:25:00,
2013-05-05 22:28:00,37.2,19.0,30.12,SSE,167,4.0,10.0,49,0.00,,,0.00,0,weatherlink.com 1.10,2013-05-06 04:28:00,
2013-05-05 22:29:00,37.2,18.8,30.11,SSE,167,6.0,9.0,47,0.00,,,0.00,0,Wunderground v.1.15,2013-05-06 04:29:00,
2013-05-05 22:35:00,37.0,19.6,30.11,South,170,7.0,9.0,49,0.00,,,0.00,0,Wunderground v.1.15,2013-05-06 04:35:00,
2013-05-05 22:40:00,36.6,19.7,30.12,South,173,4.0,4.0,50,0.00,,,0.00,0,Wunderground v.1.15,2013-05-06 04:40:00,
2013-05-05 22:49:00,35.9,20.4,30.12,South,173,1.0,1.0,53,0.00,,,0.00,0,Wunderground v.1.15,2013-05-06 04:49:00,
2013-05-05 22:57:00,35.6,19.0,30.12,South,173,0.0,0.0,52,0.00,,,0.00,0,weatherlink.com 1.10,2013-05-06 04:57:00,
2013-05-05 23:04:00,35.5,19.6,30.12,South,173,0.0,0.0,52,0.00,,,0.00,0,Wunderground v.1.15,2013-05-06 05:04:00,
2013-05-05 23:10:00,35.6,19.2,30.12,South,173,0.0,5.0,51,0.00,,,0.00,0,Wunderground v.1.15,2013-05-06 05:10:00,
2013-05-05 23:20:00,36.0,18.2,30.11,South,174,2.0,3.0,48,0.00,,,0.00,0,Wunderground v.1.15,2013-05-06 05:20:00,
2013-05-05 23:28:00,36.0,18.0,30.11,South,178,5.0,7.0,48,0.00,,,0.00,0,weatherlink.com 1.10,2013-05-06 05:28:00,
2013-05-05 23:34:00,36.5,18.6,30.11,South,190,4.0,5.0,48,0.00,,,0.00,0,Wunderground v.1.15,2013-05-06 05:34:00,
2013-05-05 23:39:00,36.3,18.5,30.11,South,190,3.0,3.0,48,0.00,,,0.00,0,Wunderground v.1.15,2013-05-06 05:39:00,
2013-05-05 23:45:00,36.2,18.4,30.11,South,190,1.0,4.0,48,0.00,,,0.00,0,Wunderground v.1.15,2013-05-06 05:45:00,
2013-05-05 23:54:00,36.5,17.7,30.11,South,191,4.0,5.0,46,0.00,,,0.00,0,Wunderground v.1.15,2013-05-06 05:54:00,